EW7507 Weather Reports


Display with metric or nautical units.
time (UTC)temp
F
wind
direction
speed
MPH
gust
MPH
rain 1hr
in
rain 24hr
in
rain mn
in
humidity
%
barometer
mb
20260901123342 47 245 0.0 1.0 0.00 0.00 0.00 87 971.3
20260901123334 47 245 0.0 1.0 0.00 0.00 0.00 86 971.2
20260901122342 47 245 0.0 0.0 0.00 0.00 0.00 86 971.2
20260901122334 47 245 0.0 0.0 0.00 0.00 0.00 86 971.2
20260901121334 47 245 0.0 0.0 0.00 0.00 0.00 86 971.3
20260901120835 47 245 0.0 0.0 0.00 0.00 0.00 86 971.4
20260901120334 47 245 0.0 1.0 0.00 0.00 0.00 86 971.4
20260901115835 47 245 0.0 1.0 0.00 0.00 0.00 86 971.3
20260901115334 47 245 0.0 1.0 0.00 0.00 0.00 86 971.3
20260901114833 47 245 0.0 0.0 0.00 0.00 0.00 86 971.3
20260901114334 47 245 0.0 0.0 0.00 0.00 0.00 86 971.3
20260901113841 48 245 0.0 0.0 0.00 0.00 0.00 86 971.4
20260901113833 48 245 0.0 0.0 0.00 0.00 0.00 86 971.4
20260901112833 48 245 0.0 1.0 0.00 0.00 0.00 86 971.5
20260901112334 48 245 0.0 1.0 0.00 0.00 0.00 86 971.5
20260901111832 48 245 0.0 0.0 0.00 0.00 0.00 86 971.5
20260901111333 48 245 0.0 0.0 0.00 0.00 0.00 86 971.5
20260901110832 48 245 0.0 0.0 0.00 0.00 0.00 86 971.5
20260901110331 48 245 0.0 0.0 0.00 0.00 0.00 85 971.4
20260901105832 48 245 0.0 0.0 0.00 0.00 0.00 85 971.5
20260901105340 49 245 0.0 0.0 0.00 0.00 0.00 85 971.4
20260901105332 48 245 0.0 0.0 0.00 0.00 0.00 85 971.5
20260901104333 49 245 0.0 0.0 0.00 0.00 0.00 85 971.3
20260901103833 49 245 0.0 0.0 0.00 0.00 0.00 85 971.3
20260901103331 49 245 0.0 0.0 0.00 0.00 0.00 85 971.3
20260901102841 49 245 0.0 0.0 0.00 0.00 0.00 84 971.4
20260901102832 49 245 0.0 0.0 0.00 0.00 0.00 84 971.3
20260901101831 49 245 0.0 0.0 0.00 0.00 0.00 84 971.3
20260901101332 49 245 0.0 0.0 0.00 0.00 0.00 84 971.3
20260901100838 49 245 0.0 0.0 0.00 0.00 0.00 84 971.3
20260901100832 49 245 0.0 0.0 0.00 0.00 0.00 84 971.2
20260901095831 49 245 0.0 0.0 0.00 0.00 0.00 83 971.3
20260901095331 49 245 0.0 0.0 0.00 0.00 0.00 83 971.4
20260901094829 50 245 0.0 0.0 0.00 0.00 0.00 82 971.4
20260901094330 50 245 0.0 0.0 0.00 0.00 0.00 82 971.3
20260901093838 50 245 0.0 0.0 0.00 0.00 0.00 82 971.3
20260901093830 50 245 0.0 0.0 0.00 0.00 0.00 82 971.2
20260901093449 51 245 0.0 0.0 0.00 0.00 0.00 82 971.4
20260901092330 51 245 0.0 0.0 0.00 0.00 0.00 82 971.4
20260901091830 51 245 0.0 0.0 0.00 0.00 0.00 82 971.4
20260901091330 51 245 0.0 2.0 0.00 0.00 0.00 82 971.4
20260901090830 51 245 0.0 2.0 0.00 0.00 0.00 81 971.4
20260901090330 51 245 0.0 2.0 0.00 0.00 0.00 81 971.4
20260901085829 51 244 0.0 0.0 0.00 0.00 0.00 79 971.5
20260901085330 51 245 0.0 2.0 0.00 0.00 0.00 78 971.5
20260901084836 52 261 0.0 4.0 0.00 0.00 0.00 79 971.6
20260901084829 52 245 0.0 4.0 0.00 0.00 0.00 78 971.7
20260901083829 52 264 0.0 2.0 0.00 0.00 0.00 79 971.7
20260901083328 52 265 0.0 0.0 0.00 0.00 0.00 78 971.6
20260901082829 52 265 0.0 0.0 0.00 0.00 0.00 78 971.6
20260901082328 52 265 0.0 0.0 0.00 0.00 0.00 77 971.6
20260901081835 53 265 0.0 2.0 0.00 0.00 0.00 76 971.6
20260901081828 53 265 0.0 2.0 0.00 0.00 0.00 76 971.6
20260901080829 53 266 0.0 1.0 0.00 0.00 0.00 76 971.7
20260901080327 53 268 0.0 2.0 0.00 0.00 0.00 75 971.7
20260901075829 53 271 0.0 2.0 0.00 0.00 0.00 76 971.7
20260901075335 53 274 0.0 4.0 0.00 0.00 0.00 76 971.8
20260901075328 53 271 0.0 2.0 0.00 0.00 0.00 76 971.8
20260901074326 54 213 0.0 4.0 0.00 0.00 0.00 76 971.8
20260901073834 53 193 0.0 3.0 0.00 0.00 0.00 76 971.9
20260901073826 54 175 0.0 4.0 0.00 0.00 0.00 76 971.8
20260901072827 53 214 0.0 3.0 0.00 0.00 0.00 76 972.0
20260901072327 53 213 0.0 4.0 0.00 0.00 0.00 76 972.0
20260901071826 54 220 0.0 4.0 0.00 0.00 0.00 76 971.9
20260901071328 54 223 0.0 2.0 0.00 0.00 0.00 76 971.8
20260901070826 54 223 0.0 2.0 0.00 0.00 0.00 77 971.9
20260901070327 54 224 0.0 1.0 0.00 0.00 0.00 79 971.9
20260901065829 54 224 0.0 1.0 0.00 0.00 0.00 78 972.0
20260901065326 54 224 0.0 1.0 0.00 0.00 0.00 78 971.8
20260901064835 55 197 0.0 5.0 0.00 0.00 0.00 75 971.7
20260901064827 54 195 0.0 5.0 0.00 0.00 0.00 78 971.7
20260901063834 55 209 0.0 0.0 0.00 0.00 0.00 72 971.9
20260901063827 55 207 0.0 2.0 0.00 0.00 0.00 73 971.8
20260901062833 56 212 0.0 2.0 0.00 0.00 0.00 72 971.8
20260901062825 55 212 0.0 2.0 0.00 0.00 0.00 72 971.8
20260901061825 56 212 0.0 1.0 0.00 0.00 0.00 71 971.8
20260901061325 56 212 0.0 0.0 0.00 0.00 0.00 71 971.8
20260901060824 56 212 0.0 1.0 0.00 0.00 0.00 71 971.8
20260901060326 56 212 0.0 1.0 0.00 0.00 0.00 71 971.9
20260901055825 56 212 0.0 0.0 0.00 0.00 0.00 71 971.9
20260901055326 56 212 0.0 0.0 0.00 0.00 0.00 70 971.9
20260901054825 57 212 0.0 2.0 0.00 0.00 0.00 68 971.9
20260901054324 58 212 0.0 5.0 0.00 0.00 0.00 68 972.0
20260901053831 57 168 0.0 9.0 0.00 0.00 0.00 68 972.0
20260901053824 58 214 0.0 9.0 0.00 0.00 0.00 68 972.0
20260901052825 58 186 0.0 2.0 0.00 0.00 0.00 68 972.1
20260901052324 58 224 0.0 5.0 0.00 0.00 0.00 67 972.1
20260901051823 58 188 0.0 5.0 0.00 0.00 0.00 66 972.1
20260901051323 59 241 0.0 2.0 0.00 0.00 0.00 66 972.2
20260901050822 59 241 0.0 1.0 0.00 0.00 0.00 65 972.1
20260901050323 60 241 0.0 1.0 0.00 0.00 0.00 65 972.0
20260901045822 60 241 0.0 0.0 0.00 0.00 0.00 64 972.0
20260901045331 60 241 0.0 1.0 0.00 0.00 0.00 63 972.1
20260901045323 60 241 0.0 0.0 0.00 0.00 0.00 64 972.0
20260901044320 61 241 0.0 1.0 0.00 0.00 0.00 63 972.1
20260901043821 61 241 0.0 3.0 0.00 0.00 0.00 63 972.0
20260901043320 61 243 0.0 3.0 0.00 0.00 0.00 62 972.0
20260901042826 61 172 0.0 2.0 0.00 0.00 0.00 62 972.0
20260901042818 61 262 0.0 3.0 0.00 0.00 0.00 63 972.1
20260901041817 61 172 0.0 2.0 0.00 0.00 0.00 62 972.1
20260901041316 62 172 0.0 1.0 0.00 0.00 0.00 62 972.1
20260901040818 62 172 0.0 1.0 0.00 0.00 0.00 62 972.0
20260901040315 62 169 0.0 1.0 0.00 0.00 0.00 62 972.0
20260901035815 62 169 0.0 3.0 0.00 0.00 0.00 62 972.0
20260901035315 61 169 0.0 3.0 0.00 0.00 0.00 63 971.9
20260901034814 62 196 0.0 3.0 0.00 0.00 0.00 60 972.0
20260901034315 63 244 0.0 3.0 0.00 0.00 0.00 59 971.9
20260901033815 63 99 0.0 1.0 0.00 0.00 0.00 59 971.8
20260901033319 64 21 0.0 1.0 0.00 0.00 0.00 58 971.6
20260901033312 65 11 0.0 1.0 0.00 0.00 0.00 57 971.6
20260901032310 65 11 0.0 0.0 0.00 0.00 0.00 55 971.6
20260901031809 66 13 0.0 1.0 0.00 0.00 0.00 53 971.5
20260901031307 67 13 0.0 0.0 0.00 0.00 0.00 53 971.5
20260901030809 67 161 0.0 3.0 0.00 0.00 0.00 51 971.4
20260901030308 67 161 0.0 3.0 0.00 0.00 0.00 50 971.4
20260901025807 67 166 0.0 1.0 0.00 0.00 0.00 50 971.4
20260901025307 67 166 0.0 3.0 0.00 0.00 0.00 50 971.3
20260901024806 68 172 0.0 7.0 0.00 0.00 0.00 48 971.2
20260901024304 68 173 0.0 7.0 0.00 0.00 0.00 48 971.1
20260901023805 69 165 1.0 4.0 0.00 0.00 0.00 48 971.2
20260901023304 69 168 1.0 5.0 0.00 0.00 0.00 46 971.1
20260901022813 70 157 1.0 5.0 0.00 0.00 0.00 46 971.1
20260901022805 70 155 1.0 5.0 0.00 0.00 0.00 45 971.1
20260901021806 70 161 0.0 4.0 0.00 0.00 0.00 46 971.0
20260901021301 71 161 0.0 4.0 0.00 0.00 0.00 44 970.9
20260901020801 71 158 1.0 5.0 0.00 0.00 0.00 44 970.9
20260901020300 72 159 2.0 5.0 0.00 0.00 0.00 42 971.0
20260901015758 72 138 0.0 4.0 0.00 0.00 0.00 40 971.1
20260901015256 72 157 1.0 4.0 0.00 0.00 0.00 40 971.0
20260901014757 73 120 1.0 4.0 0.00 0.00 0.00 39 970.8
20260901014255 73 157 1.0 6.0 0.00 0.00 0.00 38 971.0
20260901013803 74 131 0.0 6.0 0.00 0.00 0.00 39 971.0
20260901013757 74 124 2.0 6.0 0.00 0.00 0.00 38 971.0
20260901013413 74 130 0.0 5.0 0.00 0.00 0.00 39 971.1
20260901012255 74 124 2.0 5.0 0.00 0.00 0.00 37 971.0
20260901011754 74 97 2.0 5.0 0.00 0.00 0.00 37 971.0
20260901011255 74 106 2.0 5.0 0.00 0.00 0.00 37 971.1
20260901010755 74 180 0.0 3.0 0.00 0.00 0.00 37 971.1
20260901010253 75 186 1.0 2.0 0.00 0.00 0.00 35 971.0
20260901005758 75 175 0.0 3.0 0.00 0.00 0.00 33 971.1
20260901005750 75 173 0.0 2.0 0.00 0.00 0.00 34 971.1
20260901005415 75 173 1.0 3.0 0.00 0.00 0.00 33 971.0
20260901004248 75 173 0.0 2.0 0.00 0.00 0.00 33 971.1
20260901003749 75 173 1.0 3.0 0.00 0.00 0.00 33 971.0
20260901003255 75 175 0.0 2.0 0.00 0.00 0.00 34 971.1
20260901003247 75 171 0.0 3.0 0.00 0.00 0.00 33 971.1
20260901002245 76 175 0.0 4.0 0.00 0.00 0.00 33 971.2
20260901001751 76 179 0.0 5.0 0.00 0.00 0.00 33 971.2
20260901001744 76 173 1.0 4.0 0.00 0.00 0.00 33 971.1
20260901000745 76 179 0.0 5.0 0.00 0.00 0.00 35 971.1
20260901000248 76 173 0.0 2.0 0.00 0.00 0.00 32 971.1
20260831235720 0 0.0 0.0 0.00 0.00 0.00
20260831140611 57 210 0.0 6.0 0.00 0.21 0.00 65 974.4
20260831140110 57 230 0.0 5.0 0.00 0.21 0.00 65 974.4
20260831135609 56 257 0.0 2.0 0.00 0.21 0.00 65 974.4
20260831135116 56 250 0.0 4.0 0.00 0.21 0.00 65 974.2
20260831135107 56 266 0.0 4.0 0.00 0.21 0.00 65 974.3
20260831134116 56 200 0.0 2.0 0.00 0.21 0.00 67 974.3
20260831134109 56 200 1.0 3.0 0.00 0.21 0.00 66 974.2
20260831133109 56 200 0.0 0.0 0.00 0.21 0.00 66 974.2
20260831132609 56 200 0.0 2.0 0.00 0.21 0.00 66 974.2
20260831132115 56 250 1.0 7.0 0.00 0.21 0.00 67 974.0
20260831132109 56 254 0.0 7.0 0.00 0.21 0.00 66 974.1
20260831131107 56 220 0.0 5.0 0.00 0.21 0.00 67 974.0
20260831130607 56 212 1.0 5.0 0.00 0.21 0.00 67 974.0
20260831130107 55 244 0.0 4.0 0.00 0.21 0.00 68 974.0
20260831125609 55 247 0.0 5.0 0.00 0.21 0.00 68 974.0
20260831125114 55 247 0.0 7.0 0.00 0.21 0.00 69 973.8
20260831125107 55 233 0.0 5.0 0.00 0.21 0.00 68 973.9
20260831124106 55 240 1.0 7.0 0.00 0.21 0.00 69 973.9